THORAD AGENA D DEB, 42534

Orbit data source: Space-Track

THORAD AGENA D DEB, 42534 is space debris in SSO originally from a launch on Wed, 08 Apr 1970 UTC launched from the Air Force Western Test Range (AFWTR). Debris objects in space refer to the collection of defunct objects orbiting the Earth. Examples of debris include non-operational satellites, rocket bodies, and fragments generated from explosions, collisions, or faulty payload assembly.

Loading next visibility...
Identifier
42534, 1970-025SQ
Orbit
SSO
Country
Flag of USUS
Related business
Manufacturer
Unknown
Mission
Spacecraft
Bus & Motor
Unknown
Mass
Unknown
Launch date (UTC)
1970-04-08 (56 years ago)
Launch vehicle
Unknown
Launch site
Air Force Western Test Range (AFWTR)
Object type
Payload
Rocket body
Debris
Shape & HBR
Unknown shape, 0.1 m
Radar Cross Section
Small (<0.1 m²)

Expand to show TLE details & history
Last TLE update: 6 days ago

TLE from 6 days ago
0 THORAD AGENA D DEB
1 42534U 70025SQ  25289.50771573  .00000007  00000-0  19009-3 0  9992
2 42534 101.7342  13.7633 0194066 241.2628 116.8847 12.95528682556775
Epoch: 2025-10-16T12:11Z
TLE epoch observation values (Epoch: 2025-10-16T12:11:06.639Z)
Latitude
0.00002°
Longitude
165.71919°
Altitude
1,351.772 km
Speed
7.15 km/s
True Right ascension
00h 55m 03s
True Declination
0° 00' 00"
Sunlit
Object was in full shadow at epoch
Visualization orbit readout
Latitude
Unknown
Longitude
Unknown
Altitude
Unknown
Speed
Unknown
Apparent Right ascension
Unknown
Apparent Declination
Unknown
Sunlit
N/A
Visualization observer readout
Local Sidereal Time
13:42:30
Azimuth
Unknown
Elevation
Unknown
Doppler factor
Unknown
Orbital elements
Apogee altitude
1,425.708 km
Perigee altitude
1,128.582 km
Semi-major axis
7,655.282 km
Eccentricity
0.01941
Inclination
101.7342°
RAAN
13.7633°
Arg. of periapsis
241.2628°
True anomaly
118.84626°
Mean anomaly
116.8847°
Eccentric anomaly
117.86767°
Mean motion
3.24042 °/min
Orbital period
111.1 mins
BSTAR
0.00019009

Documentation

Showing up to 5 results
|